TimePDT,TemperatureF,Dew PointF,Humidity,Sea Level PressureIn,VisibilityMPH,Wind Direction,Wind SpeedMPH,Gust SpeedMPH,PrecipitationIn,Events,Conditions,WindDirDegrees,DateUTC
12:56 AM,91.0,48.0,23,29.79,10.0,SE,11.5,-,N/A,,Clear,130,2013-08-21 07:56:00
1:56 AM,84.9,57.9,40,29.78,10.0,East,6.9,-,N/A,,Clear,100,2013-08-21 08:56:00
2:56 AM,82.9,55.0,38,29.78,9.0,Calm,Calm,-,N/A,,Clear,0,2013-08-21 09:56:00
3:56 AM,82.9,59.0,44,29.78,10.0,Calm,Calm,-,N/A,,Clear,0,2013-08-21 10:56:00
4:56 AM,82.0,55.9,41,29.78,10.0,Variable,3.5,-,N/A,,Clear,0,2013-08-21 11:56:00
5:56 AM,80.1,60.1,50,29.78,10.0,NE,6.9,-,N/A,,Scattered Clouds,40,2013-08-21 12:56:00
6:56 AM,81.0,64.9,58,29.81,10.0,ESE,4.6,-,N/A,,Scattered Clouds,120,2013-08-21 13:56:00
7:56 AM,84.0,64.9,53,29.83,10.0,West,3.5,-,N/A,,Partly Cloudy,270,2013-08-21 14:56:00
8:56 AM,91.9,63.0,38,29.84,10.0,Calm,Calm,-,N/A,,Partly Cloudy,0,2013-08-21 15:56:00
9:56 AM,96.1,64.0,35,29.84,10.0,East,3.5,-,N/A,,Partly Cloudy,90,2013-08-21 16:56:00
10:56 AM,100.0,62.1,29,29.84,10.0,East,6.9,-,N/A,,Partly Cloudy,90,2013-08-21 17:56:00
11:56 AM,104.0,53.1,18,29.83,10.0,Calm,Calm,-,N/A,,Scattered Clouds,0,2013-08-21 18:56:00
12:56 PM,106.0,57.0,20,29.82,10.0,East,9.2,-,N/A,,Scattered Clouds,80,2013-08-21 19:56:00
1:56 PM,108.0,57.9,19,29.79,10.0,East,8.1,-,N/A,,Partly Cloudy,80,2013-08-21 20:56:00
2:56 PM,108.0,54.0,17,29.76,10.0,ESE,8.1,-,N/A,,Partly Cloudy,120,2013-08-21 21:56:00
3:56 PM,109.9,55.0,16,29.73,10.0,SE,11.5,-,N/A,,Clear,130,2013-08-21 22:56:00
4:56 PM,109.0,55.9,17,29.74,10.0,ESE,12.7,-,N/A,,Scattered Clouds,110,2013-08-21 23:56:00
5:56 PM,106.0,55.9,19,29.73,10.0,SE,15.0,-,N/A,,Mostly Cloudy,140,2013-08-22 00:56:00
7:06 PM,100.9,60.1,26,29.68,10.0,South,9.2,-,N/A,,Mostly Cloudy,170,2013-08-22 02:06:00
7:56 PM,99.0,60.1,28,29.75,10.0,South,9.2,-,N/A,,Mostly Cloudy,170,2013-08-22 02:56:00
8:56 PM,98.1,60.1,28,29.78,10.0,SSW,8.1,-,N/A,,Mostly Cloudy,210,2013-08-22 03:56:00
9:56 PM,96.1,59.0,29,29.79,10.0,SSE,8.1,-,N/A,,Mostly Cloudy,160,2013-08-22 04:56:00
10:56 PM,95.0,59.0,30,29.79,10.0,SSW,8.1,-,N/A,,Mostly Cloudy,200,2013-08-22 05:56:00
11:56 PM,93.9,55.9,28,29.79,10.0,South,5.8,-,N/A,,Clear,190,2013-08-22 06:56:00